Wind_Speed
1 2 2 2 3 4 4 5 4 2 2 2 3 3 3 3 3 3 3 3 3 3 3 3 4 4 5 5 5 5 5 5 6 6 7 7 8 8 9 10 10 10 10
2 1 2 2 3 4 4 4 3 2 3 3 4 4 4 4 4 4 3 3 3 3 4 4 4 5 5 6 6 6 6 7 7 7 7 8 9 9 10 10 11 10 10
2 2 2 3 4 4 4 4 4 3 3 3 4 4 5 5 4 4 5 5 5 5 5 5 6 6 6 7 7 7 8 8 8 8 9 9 9 10 10 11 11 11 12
2 2 3 4 4 5 5 4 4 4 4 5 5 5 6 6 6 7 7 7 7 7 7 7 7 7 7 8 8 8 9 9 9 9 10 10 10 11 11 12 12 13 13
3 4 4 4 5 5 5 5 5 5 6 6 6 7 7 8 9 9 10 9 9 10 10 9 9 9 9 9 10 10 10 10 10 10 11 11 11 12 12 12 12 12 13
5 5 5 5 5 5 5 6 6 7 7 8 8 8 8 8 9 10 11 10 11 11 12 11 11 11 11 11 12 12 12 12 12 11 11 12 12 12 12 13 13 13 13
5 6 6 5 5 6 6 6 6 7 8 9 9 9 9 9 10 11 11 12 12 13 14 14 13 13 13 13 13 14 14 14 14 14 13 13 13 13 14 14 14 14 14
5 6 6 6 6 7 8 8 8 9 9 10 10 10 10 11 11 11 11 12 13 14 15 15 15 15 15 16 15 15 15 16 15 15 14 14 14 14 15 16 15 15 15
6 6 7 7 8 8 8 9 9 9 10 10 10 11 11 12 12 12 12 13 14 15 15 16 16 17 17 17 17 16 17 17 16 16 16 16 16 16 16 16 15 15 16
7 7 8 8 8 9 9 10 10 10 10 11 11 12 12 12 13 13 13 14 14 15 16 17 17 17 18 17 17 17 17 18 19 18 18 18 18 18 17 16 16 16 17
8 8 9 9 9 10 10 11 10 10 11 12 12 13 13 14 13 14 15 14 14 15 16 17 18 18 19 19 19 19 18 18 19 20 20 19 19 19 18 17 17 17 17
8 9 10 10 11 11 11 12 11 11 12 12 13 13 14 14 14 15 14 14 14 15 16 17 18 18 19 19 19 20 19 19 20 20 21 21 21 20 20 18 18 18 18
9 10 11 11 11 12 12 12 12 12 12 13 13 13 14 14 14 15 15 14 14 16 16 17 17 17 18 19 20 20 20 20 21 21 21 22 21 21 20 20 20 19 20
12 12 12 12 12 12 12 12 12 13 13 14 14 15 15 15 16 16 16 16 16 17 17 18 18 18 19 20 21 20 20 20 20 22 22 22 22 22 21 20 21 21 21
13 13 13 13 13 13 14 14 14 14 14 15 16 16 16 17 17 17 17 18 18 18 18 19 19 19 20 20 21 22 21 21 20 21 21 22 22 22 21 21 21 21 21
13 14 14 14 14 14 15 15 15 15 16 16 17 18 18 19 19 20 20 20 19 19 19 20 20 20 21 21 22 23 22 21 21 21 21 21 21 22 22 22 21 21 21
14 15 16 15 15 16 16 16 16 17 17 18 19 19 20 21 21 21 21 20 21 21 21 21 21 21 21 22 23 23 22 22 21 21 21 21 21 22 22 22 22 22 22
16 16 16 16 16 17 17 18 18 18 19 20 20 21 21 22 21 21 21 21 22 22 22 22 22 22 22 23 23 24 23 23 21 22 22 22 21 22 22 22 22 22 22
18 18 17 17 18 18 19 19 20 20 21 21 21 21 21 22 22 22 22 22 23 23 23 23 23 23 23 24 24 24 24 23 22 22 21 22 22 22 22 23 23 23 23
20 20 19 19 20 20 21 21 22 22 22 22 22 22 22 23 23 24 24 23 24 24 24 23 23 23 23 23 23 24 24 25 23 22 22 22 23 23 23 23 24 24 23
21 22 22 22 22 22 23 23 24 24 24 24 24 24 24 24 24 24 24 24 24 24 24 24 24 24 24 24 24 24 24 24 24 23 23 24 24 24 24 24 24 24 24
22 22 23 24 24 24 24 25 25 25 26 26 26 26 26 26 25 25 24 25 25 26 25 24 24 25 25 25 26 25 25 25 25 24 24 24 25 25 24 24 24 24 24
23 23 24 24 25 25 25 26 27 27 27 27 27 28 28 28 27 26 26 26 26 26 25 25 25 25 25 25 25 26 26 26 26 26 25 24 25 25 25 24 24 24 24
25 24 24 25 26 27 27 27 28 28 28 28 28 29 28 28 28 27 28 27 26 26 25 25 25 25 25 25 26 26 27 27 27 26 26 24 24 24 24 23 23 23 24
25 25 26 26 27 28 28 28 28 29 29 29 29 29 30 29 29 28 28 27 27 26 26 26 26 26 25 26 26 27 27 28 27 27 26 25 24 24 24 23 23 23 23
26 27 27 28 29 28 28 29 29 29 30 30 30 29 29 29 28 27 28 28 27 27 27 27 27 26 26 27 27 27 27 27 25 25 25 25 24 24 23 23 23 23 23
Wind_Direction
26 29 26 22 9 3 357 351 345 326 305 311 317 314 290 276 280 284 290 292 279 277 274 270 276 273 266 261 260 257 250 247 246 246 251 258 259 259 259 256 257 256 252
24 16 10 351 345 349 350 349 346 331 306 298 300 307 296 283 276 271 275 280 282 282 282 280 278 272 268 267 265 264 257 253 251 253 259 262 266 265 262 260 255 253 254
36 25 10 353 343 334 331 332 334 329 315 297 298 299 293 284 282 279 279 285 284 281 281 281 283 274 268 268 268 267 266 262 260 262 266 270 275 271 268 262 255 255 256
8 346 341 333 327 325 327 328 329 324 314 301 293 290 288 280 280 280 281 280 279 281 280 280 280 277 275 272 269 268 268 264 265 267 269 271 272 273 271 267 263 261 258
348 337 334 328 321 316 314 315 315 313 308 302 293 289 285 280 279 278 279 276 275 278 279 278 278 274 275 273 268 270 268 264 264 265 269 271 271 272 271 269 266 263 261
339 335 333 330 323 313 309 306 303 308 307 303 300 296 291 284 281 280 278 276 275 276 277 274 273 272 273 275 273 271 269 265 267 269 270 271 269 268 270 271 269 267 264
334 337 332 328 323 315 305 298 297 303 303 301 298 294 291 289 286 285 280 276 274 272 274 274 271 270 270 272 272 270 267 269 271 269 270 270 269 272 272 272 272 269 265
333 332 329 321 319 319 315 305 299 300 299 297 296 294 290 290 285 287 283 277 273 270 271 273 269 268 270 271 270 270 269 270 274 272 269 268 271 275 275 275 272 271 267
315 316 318 318 319 313 309 305 300 297 293 293 294 294 292 293 288 286 281 278 275 271 270 272 269 268 268 268 270 271 268 268 271 271 269 271 272 273 274 276 275 271 268
303 308 312 314 314 310 306 303 299 296 293 292 291 294 293 292 291 289 284 279 277 274 272 273 273 271 268 268 270 273 271 270 269 271 271 270 270 271 272 273 274 269 269
302 306 309 311 310 310 308 305 300 298 295 293 291 294 295 295 295 295 289 282 280 278 275 273 273 272 272 273 273 271 272 272 271 268 270 269 269 271 269 270 270 269 269
303 305 306 308 308 308 306 302 299 297 298 296 293 294 296 296 296 294 294 286 283 284 282 279 278 275 273 274 274 274 275 273 270 268 267 267 270 271 270 271 271 269 268
302 304 303 303 304 306 306 301 298 296 297 298 297 296 296 297 298 296 296 292 288 288 285 283 282 279 276 276 275 275 277 275 271 268 268 269 269 272 271 272 272 271 270
299 301 303 303 301 302 304 303 298 298 297 297 297 297 295 295 294 295 294 292 290 289 286 284 285 281 279 277 275 277 279 278 276 271 269 270 269 271 272 273 273 272 270
302 303 303 302 301 301 302 301 299 298 298 298 299 299 296 295 294 292 290 290 290 288 287 285 284 281 280 279 277 279 279 279 278 275 271 268 268 270 272 274 274 272 271
299 302 302 301 300 300 300 300 298 299 300 298 296 296 297 297 294 291 290 290 289 288 287 288 286 284 282 280 278 279 278 277 275 273 271 269 268 270 272 274 275 274 272
298 298 299 300 299 298 299 299 299 298 299 299 298 296 296 295 294 292 292 291 289 288 286 286 286 287 285 282 280 279 278 276 274 273 272 270 269 270 272 274 275 274 272
298 297 297 298 297 296 296 296 296 297 299 299 299 297 296 295 293 292 291 290 290 288 286 285 285 287 286 284 281 280 279 276 276 275 273 271 271 271 272 272 272 273 273
294 293 293 293 293 293 294 295 295 296 298 299 299 298 297 296 294 292 291 290 289 288 286 285 286 287 286 285 282 281 280 277 277 275 274 273 272 273 274 273 272 273 273
290 288 288 288 289 290 291 293 292 294 295 297 297 297 297 296 295 292 291 291 290 289 288 287 286 286 286 287 285 283 282 277 275 273 273 273 274 274 275 275 274 272 271
290 288 288 288 286 287 288 290 290 291 292 294 295 295 296 295 294 293 292 291 290 289 289 288 285 284 285 285 284 284 283 281 278 274 273 272 274 274 276 275 275 271 268
291 291 290 289 287 287 288 289 290 291 291 291 292 293 292 292 292 291 291 291 289 289 289 287 285 283 283 283 281 280 282 282 279 276 275 274 274 275 275 273 273 271 269
290 291 292 290 287 287 288 289 290 290 290 291 291 291 292 293 293 291 291 292 291 290 288 286 285 285 285 284 281 281 281 281 279 278 276 275 275 276 274 273 272 271 268
291 290 291 290 289 288 288 288 288 289 290 292 292 294 293 294 293 292 291 292 292 289 286 285 285 285 285 284 283 282 282 281 281 280 277 275 274 274 274 274 275 274 270
292 291 291 291 292 291 289 289 289 290 290 291 291 292 292 291 292 292 291 290 289 287 285 285 287 285 283 283 283 283 282 282 280 279 277 274 274 273 272 273 274 275 273
291 290 291 291 292 293 292 290 290 289 290 290 291 293 292 291 291 292 291 289 287 287 285 284 284 284 284 283 282 283 284 282 279 278 277 275 273 272 270 271 273 274 273
Height
5891 5891 5891 5890 5890 5889 5888 5887 5886 5886 5887 5887 5887 5887 5888 5888 5888 5888 5888 5888 5888 5887 5887 5887 5887 5887 5887 5887 5887 5887 5887 5887 5887 5888 5888 5888 5888 5888 5888 5888 5888 5889 5889
5891 5891 5891 5890 5890 5889 5888 5887 5887 5887 5887 5887 5887 5887 5887 5887 5887 5887 5887 5887 5887 5887 5887 5887 5886 5886 5886 5886 5886 5886 5886 5886 5886 5886 5886 5886 5886 5886 5886 5886 5886 5886 5887
5891 5891 5890 5890 5889 5889 5888 5888 5887 5887 5886 5886 5886 5886 5886 5886 5886 5886 5886 5886 5886 5886 5886 5885 5885 5885 5885 5885 5885 5884 5884 5884 5884 5884 5884 5884 5884 5884 5883 5883 5883 5884 5884
5890 5890 5890 5889 5889 5888 5888 5887 5887 5886 5886 5885 5885 5885 5885 5885 5885 5885 5885 5885 5885 5884 5884 5884 5884 5883 5883 5883 5883 5883 5882 5882 5882 5882 5882 5882 5882 5882 5881 5881 5881 5881 5881
5890 5890 5889 5888 5888 5887 5887 5886 5886 5885 5885 5884 5884 5884 5884 5884 5884 5883 5883 5883 5883 5883 5882 5882 5882 5881 5881 5881 5881 5880 5880 5880 5880 5880 5879 5880 5879 5879 5879 5878 5878 5878 5878
5890 5889 5888 5888 5886 5886 5885 5885 5884 5884 5883 5883 5882 5882 5882 5881 5881 5880 5880 5880 5880 5880 5880 5879 5879 5879 5878 5878 5878 5878 5877 5877 5877 5877 5876 5876 5877 5876 5876 5875 5875 5874 5875
5889 5888 5888 5886 5885 5884 5884 5883 5883 5882 5881 5881 5880 5880 5879 5879 5878 5878 5877 5877 5877 5877 5876 5876 5876 5876 5875 5875 5875 5875 5874 5874 5874 5874 5873 5873 5873 5872 5872 5872 5871 5871 5870
5888 5888 5886 5885 5884 5883 5882 5881 5881 5880 5879 5878 5878 5877 5877 5877 5875 5875 5874 5874 5873 5873 5873 5873 5872 5872 5872 5871 5871 5871 5871 5871 5870 5870 5870 5870 5869 5868 5868 5868 5867 5867 5866
5887 5886 5885 5884 5883 5882 5881 5880 5879 5878 5877 5876 5875 5875 5874 5873 5872 5872 5871 5870 5869 5869 5869 5869 5868 5868 5867 5867 5867 5867 5867 5866 5866 5866 5866 5866 5865 5864 5864 5863 5863 5862 5862
5886 5885 5884 5882 5881 5880 5879 5878 5876 5875 5874 5873 5872 5871 5871 5870 5869 5868 5867 5866 5866 5865 5865 5865 5864 5864 5864 5864 5863 5863 5862 5862 5862 5862 5862 5861 5861 5860 5860 5859 5858 5857 5857
5884 5883 5882 5880 5879 5878 5877 5876 5874 5873 5872 5871 5870 5869 5868 5867 5866 5865 5864 5863 5862 5862 5861 5860 5860 5860 5859 5859 5859 5858 5858 5857 5857 5857 5857 5856 5856 5856 5855 5855 5854 5853 5852
5882 5881 5880 5878 5877 5876 5875 5873 5872 5871 5869 5868 5868 5866 5865 5864 5863 5861 5860 5859 5859 5858 5857 5857 5856 5855 5855 5854 5854 5853 5853 5852 5852 5851 5851 5851 5851 5851 5850 5850 5849 5849 5848
5880 5879 5877 5876 5875 5873 5872 5870 5869 5868 5867 5866 5865 5864 5862 5861 5859 5858 5857 5855 5855 5854 5853 5853 5852 5851 5850 5849 5849 5848 5847 5847 5846 5846 5846 5846 5846 5846 5845 5845 5845 5844 5843
5877 5876 5875 5874 5872 5871 5869 5868 5866 5865 5864 5863 5862 5860 5859 5857 5856 5855 5853 5852 5851 5850 5849 5848 5847 5846 5845 5845 5844 5843 5842 5842 5841 5840 5840 5840 5840 5840 5840 5840 5839 5838 5838
5874 5873 5872 5871 5869 5868 5866 5865 5863 5862 5861 5860 5858 5857 5855 5854 5852 5851 5849 5848 5848 5846 5845 5844 5842 5841 5840 5839 5839 5838 5837 5836 5836 5835 5835 5834 5834 5834 5834 5834 5833 5833 5832
5871 5870 5869 5867 5866 5865 5863 5862 5860 5859 5857 5856 5854 5853 5851 5850 5848 5847 5845 5844 5843 5842 5841 5839 5837 5836 5835 5834 5833 5832 5832 5831 5830 5829 5829 5828 5828 5828 5828 5828 5827 5826 5826
5868 5867 5865 5864 5862 5861 5860 5858 5857 5855 5854 5852 5851 5849 5847 5846 5844 5842 5840 5839 5837 5836 5835 5834 5832 5831 5830 5829 5827 5826 5825 5824 5824 5823 5823 5822 5822 5822 5822 5821 5821 5820 5820
5864 5863 5861 5860 5859 5857 5856 5854 5853 5851 5850 5848 5846 5844 5842 5840 5838 5837 5835 5834 5832 5830 5829 5828 5826 5825 5824 5823 5822 5820 5819 5818 5818 5817 5816 5816 5816 5815 5815 5815 5814 5814 5813
5860 5859 5857 5856 5854 5853 5851 5850 5848 5847 5845 5843 5841 5839 5837 5835 5833 5831 5829 5828 5826 5825 5823 5822 5821 5819 5818 5817 5815 5814 5813 5812 5811 5811 5810 5810 5809 5809 5809 5808 5808 5807 5807
5856 5854 5852 5851 5849 5848 5846 5845 5843 5841 5840 5838 5836 5834 5832 5830 5828 5825 5824 5822 5820 5819 5817 5816 5815 5813 5812 5810 5809 5808 5807 5806 5805 5804 5804 5803 5803 5802 5802 5801 5801 5800 5800
5850 5848 5847 5845 5844 5842 5841 5839 5837 5836 5834 5832 5830 5828 5826 5824 5821 5819 5817 5816 5814 5812 5811 5809 5808 5807 5805 5804 5803 5801 5800 5799 5798 5797 5797 5796 5796 5795 5794 5794 5793 5793 5792
5843 5842 5841 5839 5838 5836 5835 5833 5831 5829 5828 5826 5824 5821 5819 5817 5815 5813 5811 5809 5807 5806 5804 5803 5802 5800 5799 5797 5796 5795 5793 5792 5792 5791 5790 5789 5789 5788 5787 5786 5786 5785 5785
5837 5836 5834 5832 5831 5830 5828 5826 5825 5823 5821 5819 5817 5815 5812 5810 5808 5806 5804 5802 5800 5799 5798 5796 5795 5794 5792 5791 5789 5788 5787 5786 5784 5783 5782 5782 5781 5780 5779 5779 5778 5778 5777
5830 5829 5827 5826 5824 5823 5821 5819 5817 5815 5813 5811 5809 5807 5805 5803 5801 5799 5797 5795 5794 5792 5791 5789 5788 5787 5785 5783 5782 5781 5779 5778 5777 5775 5774 5774 5773 5773 5772 5772 5771 5770 5770
5823 5821 5820 5818 5817 5815 5813 5811 5809 5807 5806 5804 5802 5799 5797 5795 5793 5791 5789 5788 5786 5785 5783 5782 5780 5779 5778 5776 5775 5773 5772 5770 5769 5768 5766 5766 5766 5765 5765 5765 5764 5763 5763
5816 5814 5812 5811 5809 5807 5804 5803 5801 5799 5798 5796 5793 5791 5788 5786 5784 5782 5781 5779 5778 5777 5775 5774 5772 5771 5770 5768 5767 5766 5764 5762 5761 5760 5759 5758 5758 5758 5758 5758 5757 5756 5756